This demonstration page uses our WeatherBlox Daily Observations layout. Learn more.

Left ArrowRight Arrow

Hourly Observations for March 7, 2015

Temp ( °F °C ) Dew Point ( °F °C ) Humidity (%) Winds ( mph kmh ) Pressure ( in mb ) Visibility ( mi km ) Precip ( " mm )
12:53 am 00:53 Clear 47 8.3 37 2.8 69 69 Calm 30.13 1020 10 16 0.00 0.00
1:53 am 01:53 Clear 44 6.7 36 2.2 73 73 Calm 30.13 1020 10 16 0.00 0.00
2:53 am 02:53 Clear 43 6.1 36 2.2 76 76 Calm 30.11 1020 10 16 0.00 0.00
3:53 am 03:53 Clear 42 5.6 35 1.7 76 76 Calm 30.10 1019 10 16 0.00 0.00
4:53 am 04:53 Clear 40 4.4 35 1.7 83 83 Calm 30.11 1020 10 16 0.00 0.00
5:53 am 05:53 Clear 39 3.9 33 0.6 79 79 Calm 30.11 1020 10 16 0.00 0.00
6:53 am 06:53 Sunny 39 3.9 34 1.1 82 82 Calm 30.12 1020 10 16 0.00 0.00
7:53 am 07:53 Sunny 44 6.7 37 2.8 76 76 Calm 30.13 1020 10 16 0.00 0.00
8:53 am 08:53 Sunny 50 10 37 2.8 61 61 Calm 30.13 1020 10 16 0.00 0.00
9:53 am 09:53 Sunny 58 14.4 39 3.9 50 50 SSE 3 6 30.12 1020 10 16 0.00 0.00
10:53 am 10:53 Sunny 66 19 39 4 37 37 S 3 6 30.06 1018 10 16 0.00 0.00
11:53 am 11:53 Sunny 73 22.8 40 4.4 30 30 ESE 6 9 30.07 1018 10 16 0.00 0.00
12:53 pm 12:53 Sunny 76 24.4 33 0.6 21 21 Calm 30.04 1017 10 16 0.00 0.00
1:53 pm 13:53 Sunny 79 26.1 29 -1.7 16 16 Calm 30.01 1016 10 16 0.00 0.00
2:53 pm 14:53 Sunny 80 26.7 30 -1.1 16 16 ESE 5 7 29.99 1016 10 16 0.00 0.00
3:53 pm 15:53 Sunny 80 26.7 29 -1.7 15 15 SSE 7 11 29.98 1015 10 16 0.00 0.00
4:53 pm 16:53 Sunny 78 25.6 37 2.8 23 23 SSE 8 13 29.96 1015 10 16 0.00 0.00
5:53 pm 17:53 Sunny 71 21.7 42 5.6 35 35 S 8 13 29.97 1015 10 16 0.00 0.00
6:53 pm 18:53 Clear 63 17.2 43 6.1 48 48 SSE 5 7 29.99 1016 10 16 0.00 0.00
7:53 pm 19:53 Clear 60 15.6 43 6.1 53 53 Calm 30.01 1016 10 16 0.00 0.00
8:53 pm 20:53 Clear 57 13.9 42 5.6 58 58 NNE 5 7 30.02 1017 10 16 0.00 0.00
9:53 pm 21:53 Clear 55 12.8 42 5.6 62 62 Calm 30.04 1017 10 16 0.00 0.00
10:53 pm 22:53 Clear 52 11.1 42 5.6 69 69 Calm 30.05 1018 10 16 0.00 0.00
11:53 pm 23:53 Clear 50 10 41 5 71 71 N 3 6 30.05 1018 10 16 0.00 0.00

Powered by AerisWeather